This demonstration page uses our WeatherBlox Daily Observations layout. Learn more.

Left ArrowRight Arrow

41.86663, -103.66717

Hourly Observations for June 11, 2020

Temp ( °F °C ) Dew Point ( °F °C ) Humidity (%) Winds ( mph kmh ) Pressure ( in mb ) Visibility ( mi km ) Precip ( " mm )
12:53 am 00:53 Clear 55 12.8 45 7.2 69 69 Calm 30.09 1019 10 16 0.00 0.00
1:53 am 01:53 Clear 51 10.6 44 6.7 77 77 ENE 5 7 30.10 1019 10 16 0.00 0.00
2:53 am 02:53 Clear 50 10 44 6.7 80 80 Calm 30.11 1020 10 16 0.00 0.00
3:53 am 03:53 Clear 47 8.3 44 6.7 90 90 WNW 5 7 30.12 1020 10 16 0.00 0.00
4:53 am 04:53 Clear 48 8.9 44 6.7 86 86 NW 8 13 30.14 1021 10 16 0.00 0.00
5:53 am 05:53 Sunny 49 9.4 45 7.2 86 86 NW 5 7 30.16 1021 10 16 0.00 0.00
6:53 am 06:53 Sunny 52 11.1 46 7.8 80 80 WNW 6 9 30.17 1022 10 16 0.00 0.00
7:53 am 07:53 Sunny 58 14.4 47 8.3 67 67 WNW 7 11 30.19 1022 10 16 0.00 0.00
8:53 am 08:53 Sunny 64 17.8 49 9.4 58 58 NW 6 9 30.20 1023 10 16 0.00 0.00
9:53 am 09:53 Sunny 71 21.7 48 8.9 44 44 W 5 7 30.19 1022 10 16 0.00 0.00
10:53 am 10:53 Sunny 76 24.4 48 8.9 37 37 VRB 3 6 30.19 1022 10 16 0.00 0.00
11:53 am 11:53 Sunny 79 26.1 44 6.7 29 29 Calm 30.19 1022 10 16 0.00 0.00
12:53 pm 12:53 Sunny 82 27.8 41 5 23 23 VRB 3 6 30.18 1022 10 16 0.00 0.00
1:53 pm 13:53 Sunny 82 27.8 37 2.8 20 20 SW 5 7 30.17 1022 10 16 0.00 0.00
2:53 pm 14:53 Sunny 84 28.9 35 1.7 17 17 VRB 5 7 30.17 1022 10 16 0.00 0.00
3:53 pm 15:53 Sunny 84 28.9 36 2.2 18 18 SSE 7 11 30.16 1022 10 16 0.00 0.00
4:53 pm 16:53 Sunny 84 28.9 36 2.2 18 18 VRB 5 7 30.16 1021 10 16 0.00 0.00
5:53 pm 17:53 Sunny 83 28.3 36 2.2 19 19 VRB 3 6 30.15 1021 10 16 0.00 0.00
6:53 pm 18:53 Sunny 82 27.8 40 4.4 22 22 ESE 10 17 30.14 1021 10 16 0.00 0.00
7:53 pm 19:53 Sunny 77 25 43 6.1 30 30 ESE 9 15 30.15 1021 10 16 0.00 0.00
8:53 pm 20:53 Clear 70 21.1 44 6.7 39 39 ESE 8 13 30.16 1021 10 16 0.00 0.00
9:53 pm 21:53 Clear 64 17.8 47 8.3 54 54 E 8 13 30.18 1022 10 16 0.00 0.00
10:53 pm 22:53 Clear 61 16.1 48 8.9 63 63 E 8 13 30.19 1022 10 16 0.00 0.00
11:53 pm 23:53 Clear 60 15.6 49 9.4 67 67 ESE 7 11 30.19 1022 10 16 0.00 0.00

Powered by AerisWeather